STARLINK-33754 (63487 NORAD) Tracking and Keplerian Element Data

This shows tracking and keplerian element data for the satellite.

Feedback or suggestion? Click here.




ElementValue
Catalog63487
NameSTARLINK-33754
Epoch Orbit4079
Epoch Day354.03782074
Epoch Year2025
RAAN349.7036
Inclination43.0033
Eccentricity0.0001415
Argument of Perigee294.7419
Mean Anonmoly65.3285
Mean Motion15.27596116
Decay Rate0.00024372
L11 63487U 25070AD 25354.03782074 .00024372 00000+0 89182-3 0 9990
L22 63487 43.0033 349.7036 0001415 294.7419 65.3285 15.27596116 40794



Live tracking and technical data element details for STARLINK-33754 (NORAD 63487). STARLINK-33754 can be tracked NOW for your location showing map with azimuth and elevation plus other details from your city location.







IsCatalogInMostPopularTable: catalog: 63487, numindb: 5
Update: records affected: 1



GetName: 63487 STARLINK-33754

Hit Count: updated at: Mon, 20 Apr 2026 10:32:21 GMT